This is the latest recevied weather packets stored in our database for station/object HOWARD. If no packets are shown the sender has not sent any weather packets the latest 10 day(s).
| Time | Temp. | Humidity | Pressure | Rain* | Wind** | Luminosity | Snow |
|---|---|---|---|---|---|---|---|
| 1787859276 | 18.33° C | 23% | 1019.6 hPa | 0 mm | - | - | - |
| 1787858711 | 18.33° C | 22% | 1019.6 hPa | 0 mm | - | - | - |
| 1787858676 | 18.33° C | 22% | 1019.6 hPa | 0 mm | - | - | - |
| 1787858076 | 18.33° C | 25% | 1019.6 hPa | 0 mm | - | - | - |
| 1787857476 | 18.33° C | 28% | 1019.6 hPa | 0 mm | - | - | - |
| 1787856876 | 17.78° C | 25% | 1019.5 hPa | 0 mm | - | - | - |
| 1787856276 | 17.78° C | 27% | 1019.4 hPa | 0 mm | - | - | - |
| 1787855676 | 17.78° C | 27% | 1019.5 hPa | 0 mm | - | - | - |
| 1787855076 | 17.22° C | 28% | 1019.5 hPa | 0 mm | - | - | - |
| 1787854476 | 17.22° C | 28% | 1019.5 hPa | 0 mm | - | - | - |
| 1787853876 | 17.78° C | 30% | 1019.4 hPa | 0 mm | - | - | - |
| 1787853275 | 17.22° C | 29% | 1019.4 hPa | 0 mm | - | - | - |
| 1787852676 | 17.22° C | 29% | 1019.6 hPa | 0 mm | - | - | - |
| 1787852076 | 17.22° C | 28% | 1019.4 hPa | 0 mm | - | - | - |
| 1787851545 | 17.22° C | 30% | 1019.4 hPa | 0 mm | - | - | - |
| 1787851476 | 17.22° C | 30% | 1019.4 hPa | 0 mm | - | - | - |
| 1787850876 | 17.22° C | 30% | 1019.3 hPa | 0 mm | - | - | - |
| 1787850276 | 17.22° C | 31% | 1019.2 hPa | 0 mm | - | - | - |
| 1787849676 | 17.22° C | 32% | 1019.2 hPa | 0 mm | - | - | - |
| 1787849075 | 16.67° C | 31% | 1019 hPa | 0 mm | - | - | - |
| 1787848479 | 16.67° C | 32% | 1019.1 hPa | 0 mm | - | - | - |
| 1787847876 | 16.67° C | 34% | 1019.1 hPa | 0 mm | - | - | - |
| 1787847276 | 16.67° C | 32% | 1019 hPa | 0 mm | - | - | - |
| 1787846675 | 16.67° C | 33% | 1019.1 hPa | 0 mm | - | - | - |
| 1787846075 | 16.67° C | 32% | 1019 hPa | 0 mm | - | - | - |
* Rain latest hour (hover to see other rain measurements)
** Current wind speed in m/s (hover to see current wind gust speed)